Starlink 34149

operational
NORAD ID: 64140 Int'l Des: 2025-111 Owner: SPXS Country: US Constellation: starlink
LEOCIRCULAR

关于 Starlink 34149

正在加载描述...

实时位置

正在加载3D地球...

即将过境

高度历史

Altitude vs Time

uPlot chart will show altitude changes over time

两行轨道根数

1 64140U 25111T 25353.78608000 .00014540 00000-0 53670-3 0 9990
2 64140 43.0008 169.0803 0000604 41.8781 318.2117 15.27588968 33242
Epoch: Dec 19, 2025 • Age: 11 hours

当前状态

高度 494.5 km
速度 7.62 km/s
星下点 -38.40°S, 63.68°W
发射日期 May 24, 2025
运行时间 0.5 years
类型 internet

技术详情

分类 Payload
质量 575.00 kg
干质量 530.00 kg
总质量 575.00 kg
长度 0.30 m
直径 4.10 m
跨度 29.00 m
形状 Box + pan
制造商 SPXS
平台类型 Starlink V2MO
阶段状态 In Orbit
所有者/国家 SPXS/US

大型星座

Loading constellations...